Weather in Diveevo

Russia / Nizhny Novgorod Oblast'     55°02′12″N   43°14′48″E
temp.,
°C
wind,
m/s
gust,
m/s
humid.,
%
clouds,
%
prec.,
mm/h
press.,
hPa
HPBL,
m
21 april, wed
wed2100:00+4ese91890100 4.1 10141011
03:00+4se92092100 14.6 10111162
06:00+5se102090100 0.3 1009976
09:00+7se91883100 0.5 1009964
12:00+9sse91681100 0.1 10091100
15:00+8sse8148792 0.1 1009674
18:00+8s61293100 2.0 1010699
21:00+5wsw4895100 6.1 1013640
22 april, thu
thu2200:00+4sw5991100 0.9 1015696
03:00+5ssw3992100 0.9 1017483
06:00+5se2595100 0.0 1017234
09:00+7ssw6982100 0.4 1018991
12:00+7sw5886100 0.2 10201063
15:00+9sw577118 0.4 10201167
18:00+8sw377615 0.1 1021297
21:00+7s248335 0.1 102278
23 april, fri
fri2300:00+7sse4980100 0.0 1021206
03:00+6sse498299 0.0 1022188
06:00+6sse398399 0.0 1022216
09:00+12s486153 0.0 1022476
12:00+16s554846 0.1 10211738
15:00+13s3662100 0.3 1021228
18:00+13sse3762100 0.1 1020242
21:00+9se367884 0.1 101996
24 april, sat
sat2400:00+8se3107955 0.0 1018174
03:00+7se388639 0.0 1016147
06:00+7se41087100 0.0 1015248
09:00+11s5107791 0.2 1013702
12:00+12sse6107339 1.2 1011986
15:00+13sse5963100 1.4 10081515
18:00+10se4885100 5.4 1007461
21:00+5wsw5994100 10.3 1008782
25 april, sun
sun2500:00+4sw41091100 1.6 1009740
03:00+3sw511890 1.6 1008449
06:00+2sw5119140 0.0 1010531
09:00+6wsw687071 0.1 10101267
12:00+8sw7954100 0.5 10102006
15:00+8wsw7105183 1.3 10112134
18:00+8wsw47565 0.1 1011987
21:00+3ssw367579 0.1 101398